Kingman, Arizona, United States (86401)
Lat: 35.19N, Lon: 114.05W
Wx Zone: AZZ003
Local Info
Past Weather Observations for Sunday, January 25, 2015

NOTE: This archive is for the closest National Weather Service station to Kingman. Information may differ from the station used for current weather conditions.

Click here for Long-term Archive

Time Weather Temperature Dewpoint Humidity Pressure Winds Precip Visibility
23:51
Clear
55°F / 13°C 25°F / -4°C 31% 30.21 in
(1023 mb)
E 9.2 mph
(E 15 kph)
- 10SM
22:51
Clear
48°F / 9°C 27°F / -3°C 43% 30.21 in
(1023 mb)
SSE 3.5 mph
(SSE 6 kph)
- 10SM
21:51
Clear
46°F / 8°C 27°F / -3°C 46% 30.18 in
(1022 mb)
Calm - 10SM
20:51
Clear
52°F / 11°C 27°F / -3°C 38% 30.18 in
(1022 mb)
E 8.1 mph
(E 13 kph)
- 10SM
19:51
Clear
54°F / 12°C 28°F / -2°C 38% 30.18 in
(1022 mb)
E 11.5 mph
(E 19 kph)
- 10SM
18:51
Clear
48°F / 9°C 27°F / -3°C 43% 30.15 in
(1021 mb)
E 6.9 mph
(E 11 kph)
- 10SM
17:51
Clear
55°F / 13°C 27°F / -3°C 33% 30.15 in
(1021 mb)
NE 6.9 mph
(NE 11 kph)
- 10SM
16:51
Clear
64°F / 18°C 25°F / -4°C 22% 30.15 in
(1021 mb)
NNE 12.7 mph
(NNE 20 kph)
- 10SM
15:51
Clear
66°F / 19°C 25°F / -4°C 21% 30.15 in
(1021 mb)
N 18.4 mph
(N 30 kph)
- 10SM
14:51
Clear
66°F / 19°C 25°F / -4°C 21% 30.15 in
(1021 mb)
NNE 16.1 mph
(NNE 26 kph)
- 10SM
13:51
Clear
66°F / 19°C 25°F / -4°C 21% 30.18 in
(1022 mb)
NNE 20.7 mph
(NNE 33 kph)
- 10SM
12:51
Clear
63°F / 17°C 25°F / -4°C 24% 30.21 in
(1023 mb)
NNW 13.8 mph
(NNW 22 kph)
- 10SM
11:51
Clear
61°F / 16°C 23°F / -5°C 23% 30.24 in
(1024 mb)
N 10.4 mph
(N 17 kph)
- 10SM
10:51
Clear
57°F / 14°C 23°F / -5°C 27% 30.27 in
(1025 mb)
N 12.7 mph
(N 20 kph)
- 10SM
09:51
Clear
54°F / 12°C 23°F / -5°C 30% 30.27 in
(1025 mb)
N 13.8 mph
(N 22 kph)
- 10SM
08:51
Clear
48°F / 9°C 21°F / -6°C 34% 30.27 in
(1025 mb)
Calm - 10SM
07:51
Clear
41°F / 5°C 21°F / -6°C 45% 30.27 in
(1025 mb)
ENE 5.8 mph
(ENE 9 kph)
-
06:51
Clear
37°F / 3°C 21°F / -6°C 52% 30.24 in
(1024 mb)
ENE 4.6 mph
(ENE 7 kph)
-
05:51
Clear
41°F / 5°C 19°F / -7°C 42% 30.24 in
(1024 mb)
E 6.9 mph
(E 11 kph)
-
04:51
Clear
37°F / 3°C 19°F / -7°C 48% 30.24 in
(1024 mb)
E 8.1 mph
(E 13 kph)
-
03:51
Clear
43°F / 6°C 19°F / -7°C 39% 30.24 in
(1024 mb)
ENE 8.1 mph
(ENE 13 kph)
-
02:51
Clear
41°F / 5°C 19°F / -7°C 42% 30.24 in
(1024 mb)
E 8.1 mph
(E 13 kph)
-
01:51
Clear
45°F / 7°C 19°F / -7°C 37% 30.24 in
(1024 mb)
NE 10.4 mph
(NE 17 kph)
-
00:51
Clear
46°F / 8°C 19°F / -7°C 34% 30.24 in
(1024 mb)
E 5.8 mph
(E 9 kph)
-
Time Weather Temperature Dewpoint Humidity Pressure Winds Precip Visibility


Weather for websites

WeatherForYou.com, LLC is not responsible for any damages or problems caused by this service. Current weather conditions are obtained from the closest station including government and personal stations which may have varying degrees of accuracy. Weather forecasts are derived from the NOAA NDFD. Like all things, this site belongs to Jesus Christ... He just trusts me to maintain it. If you have any questions or comments email webmaster@weatherforyou.com

Copyright © 2015, WeatherForYou.com LLC. All rights reserved.